| time (UTC) | temp F | wind direction | speed knots | gust knots | rain 1hr in | rain 24hr in | rain mn in | humidity % | barometer mb |
| 20260509233008 | 70 | 338 | 3.5 | 7.0 | 0.00 | 0.00 | 0.00 | 69 | 1010.7 |
| 20260509231513 | 70 | 314 | 7.0 | 10.4 | 0.00 | 0.00 | 0.00 | 68 | 1010.6 |
| 20260509230018 | 71 | 323 | 2.6 | 7.0 | 0.00 | 0.00 | 0.00 | 67 | 1010.3 |
| 20260509224521 | 71 | 303 | 4.3 | 9.6 | 0.00 | 0.00 | 0.00 | 65 | 1010.2 |
| 20260509223028 | 72 | 300 | 4.3 | 10.4 | 0.00 | 0.00 | 0.00 | 63 | 1010.0 |
| 20260509221511 | 72 | 322 | 4.3 | 9.6 | 0.00 | 0.00 | 0.00 | 63 | 1009.8 |
| 20260509220016 | 72 | 317 | 6.1 | 11.3 | 0.00 | 0.00 | 0.00 | 63 | 1009.7 |
| 20260509214519 | 73 | 293 | 3.5 | 10.4 | 0.00 | 0.00 | 0.00 | 62 | 1009.6 |
| 20260509213026 | 74 | 338 | 5.2 | 8.7 | 0.00 | 0.00 | 0.00 | 58 | 1009.5 |
| 20260509211528 | 74 | 319 | 7.0 | 13.9 | 0.00 | 0.00 | 0.00 | 58 | 1009.4 |
| 20260509210014 | 73 | 327 | 6.1 | 10.4 | 0.00 | 0.00 | 0.00 | 58 | 1009.4 |
| 20260509204516 | 75 | 309 | 5.2 | 11.3 | 0.00 | 0.00 | 0.00 | 57 | 1009.4 |
| 20260509203033 | 74 | 323 | 6.1 | 12.2 | 0.00 | 0.00 | 0.00 | 57 | 1009.2 |
| 20260509201526 | 74 | 345 | 7.0 | 11.3 | 0.00 | 0.00 | 0.00 | 58 | 1009.4 |
| 20260509200033 | 74 | 272 | 3.5 | 6.1 | 0.00 | 0.00 | 0.00 | 57 | 1009.8 |
| 20260509194511 | 75 | 347 | 6.1 | 12.2 | 0.00 | 0.00 | 0.00 | 55 | 1009.9 |
| 20260509193023 | 75 | 313 | 7.0 | 13.0 | 0.00 | 0.00 | 0.00 | 54 | 1009.9 |
| 20260509191524 | 73 | 278 | 3.5 | 10.4 | 0.00 | 0.00 | 0.00 | 59 | 1009.9 |
| 20260509190028 | 73 | 33 | 5.2 | 10.4 | 0.00 | 0.00 | 0.00 | 59 | 1010.2 |
| 20260509184529 | 72 | 356 | 7.8 | 13.0 | 0.00 | 0.00 | 0.00 | 60 | 1010.2 |
| 20260509183018 | 73 | 316 | 7.0 | 13.0 | 0.00 | 0.00 | 0.00 | 59 | 1010.4 |
| 20260509181520 | 71 | 314 | 7.0 | 11.3 | 0.00 | 0.00 | 0.00 | 62 | 1010.6 |
| 20260509180023 | 71 | 338 | 7.8 | 14.8 | 0.00 | 0.00 | 0.00 | 60 | 1010.8 |
| 20260509174542 | 70 | 340 | 8.7 | 13.9 | 0.00 | 0.00 | 0.00 | 62 | 1011.0 |
| 20260509173030 | 71 | 340 | 8.7 | 13.0 | 0.00 | 0.00 | 0.00 | 58 | 1011.0 |
| 20260509171516 | 71 | 304 | 6.1 | 14.8 | 0.00 | 0.00 | 0.00 | 63 | 1011.1 |
| 20260509170024 | 69 | 298 | 5.2 | 13.9 | 0.00 | 0.00 | 0.00 | 63 | 1011.3 |
| 20260509164525 | 69 | 278 | 8.7 | 13.0 | 0.00 | 0.00 | 0.00 | 63 | 1011.2 |
| 20260509163041 | 68 | 317 | 7.0 | 13.0 | 0.00 | 0.00 | 0.00 | 65 | 1011.8 |
| 20260509161540 | 68 | 320 | 5.2 | 10.4 | 0.00 | 0.00 | 0.00 | 66 | 1012.0 |
| 20260509160021 | 68 | 37 | 6.1 | 10.4 | 0.00 | 0.00 | 0.00 | 66 | 1012.1 |
| 20260509154524 | 67 | 321 | 4.3 | 9.6 | 0.00 | 0.00 | 0.00 | 67 | 1012.2 |
| 20260509153043 | 67 | 28 | 5.2 | 10.4 | 0.00 | 0.00 | 0.00 | 68 | 1012.2 |
| 20260509151530 | 66 | 319 | 5.2 | 11.3 | 0.00 | 0.00 | 0.00 | 68 | 1011.9 |
| 20260509150038 | 66 | 36 | 3.5 | 7.0 | 0.00 | 0.00 | 0.00 | 69 | 1012.1 |
| 20260509144520 | 66 | 309 | 4.3 | 8.7 | 0.00 | 0.00 | 0.00 | 69 | 1012.2 |
| 20260509143006 | 65 | 112 | 0.9 | 3.5 | 0.00 | 0.00 | 0.00 | 72 | 1012.1 |
| 20260509141510 | 63 | 247 | 0.9 | 4.3 | 0.00 | 0.00 | 0.00 | 75 | 1012.2 |
| 20260509140011 | 61 | 242 | 2.6 | 5.2 | 0.00 | 0.00 | 0.00 | 77 | 1012.0 |
| 20260509134517 | 60 | 279 | 0.9 | 4.3 | 0.00 | 0.00 | 0.00 | 78 | 1012.2 |
| 20260509133020 | 60 | 207 | 0.9 | 4.3 | 0.00 | 0.00 | 0.00 | 78 | 1012.3 |
| 20260509131503 | 60 | 249 | 0.9 | 2.6 | 0.00 | 0.00 | 0.00 | 78 | 1012.6 |
| 20260509130011 | 59 | 122 | 0.0 | 1.7 | 0.00 | 0.00 | 0.00 | 77 | 1013.0 |
| 20260509124515 | 57 | 146 | 0.0 | 0.9 | 0.00 | 0.00 | 0.00 | 79 | 1013.0 |
| 20260509123018 | 54 | 162 | 0.0 | 0.9 | 0.00 | 0.00 | 0.00 | 88 | 1013.2 |
| 20260509121525 | 52 | 160 | 0.0 | 0.9 | 0.00 | 0.00 | 0.00 | 92 | 1013.1 |
| 20260509120006 | 49 | 132 | 0.0 | 0.9 | 0.00 | 0.00 | 0.00 | 91 | 1012.9 |
| 20260509114512 | 50 | 156 | 0.0 | 0.0 | 0.00 | 0.00 | 0.00 | 93 | 1012.7 |
| 20260509113014 | 49 | 159 | 0.9 | 0.9 | 0.00 | 0.00 | 0.00 | 94 | 1012.3 |
| 20260509111522 | 47 | 143 | 0.0 | 1.7 | 0.00 | 0.00 | 0.00 | 94 | 1012.5 |
| 20260509110026 | 47 | 140 | 0.0 | 0.0 | 0.00 | 0.00 | 0.00 | 94 | 1012.6 |
| 20260509104526 | 46 | 139 | 0.0 | 0.9 | 0.00 | 0.00 | 0.00 | 94 | 1012.7 |
| 20260509103010 | 46 | 139 | 0.0 | 0.0 | 0.00 | 0.00 | 0.00 | 94 | 1012.2 |
| 20260509101514 | 46 | 139 | 0.0 | 0.0 | 0.00 | 0.00 | 0.00 | 94 | 1012.1 |
| 20260509100020 | 46 | 139 | 0.0 | 0.9 | 0.00 | 0.00 | 0.00 | 92 | 1012.0 |
| 20260509094526 | 47 | 150 | 0.0 | 0.0 | 0.00 | 0.00 | 0.00 | 93 | 1011.9 |
| 20260509093037 | 47 | 150 | 0.0 | 0.0 | 0.00 | 0.00 | 0.00 | 92 | 1011.9 |
| 20260509091512 | 48 | 150 | 0.0 | 0.0 | 0.00 | 0.00 | 0.00 | 91 | 1012.0 |
| 20260509090018 | 49 | 190 | 0.0 | 1.7 | 0.00 | 0.00 | 0.00 | 91 | 1012.0 |
| 20260509084525 | 49 | 145 | 0.0 | 0.0 | 0.00 | 0.00 | 0.00 | 91 | 1012.2 |
| 20260509083023 | 50 | 145 | 0.0 | 0.0 | 0.00 | 0.00 | 0.00 | 89 | 1012.3 |
| 20260509081528 | 51 | 145 | 0.0 | 0.0 | 0.00 | 0.00 | 0.00 | 87 | 1012.2 |
| 20260509080015 | 52 | 145 | 0.0 | 0.0 | 0.00 | 0.00 | 0.00 | 86 | 1012.0 |
| 20260509074516 | 52 | 145 | 0.0 | 0.0 | 0.00 | 0.00 | 0.00 | 87 | 1012.2 |
| 20260509073024 | 52 | 145 | 0.0 | 1.7 | 0.00 | 0.00 | 0.00 | 85 | 1012.4 |
| 20260509071528 | 51 | 195 | 0.0 | 0.9 | 0.00 | 0.00 | 0.00 | 90 | 1012.7 |
| 20260509070030 | 50 | 172 | 0.0 | 0.0 | 0.00 | 0.00 | 0.00 | 89 | 1013.0 |
| 20260509064516 | 51 | 172 | 0.0 | 0.0 | 0.00 | 0.00 | 0.00 | 88 | 1013.2 |
| 20260509063023 | 51 | 200 | 0.0 | 0.0 | 0.00 | 0.00 | 0.00 | 86 | 1013.2 |
| 20260509061528 | 53 | 207 | 0.0 | 0.9 | 0.00 | 0.00 | 0.00 | 85 | 1013.5 |
| 20260509060033 | 54 | 207 | 0.0 | 0.9 | 0.00 | 0.00 | 0.00 | 82 | 1013.7 |
| 20260509054531 | 53 | 150 | 0.0 | 0.0 | 0.00 | 0.00 | 0.00 | 82 | 1013.9 |
| 20260509053028 | 54 | 150 | 0.0 | 0.0 | 0.00 | 0.00 | 0.00 | 80 | 1014.1 |
| 20260509051520 | 54 | 150 | 0.0 | 0.0 | 0.00 | 0.00 | 0.00 | 80 | 1014.0 |
| 20260509050042 | 56 | 146 | 0.0 | 0.0 | 0.00 | 0.00 | 0.00 | 78 | 1014.4 |
| 20260509044526 | 54 | 190 | 0.0 | 0.0 | 0.00 | 0.00 | 0.00 | 81 | 1014.5 |
| 20260509043010 | 55 | 190 | 0.0 | 0.0 | 0.00 | 0.00 | 0.00 | 81 | 1014.4 |
| 20260509041515 | 56 | 190 | 0.0 | 0.0 | 0.00 | 0.00 | 0.00 | 77 | 1014.6 |
| 20260509040018 | 57 | 190 | 0.0 | 0.0 | 0.00 | 0.00 | 0.00 | 75 | 1014.6 |
| 20260509034504 | 58 | 190 | 0.0 | 0.0 | 0.00 | 0.00 | 0.00 | 73 | 1014.7 |
| 20260509033008 | 58 | 190 | 0.0 | 0.9 | 0.00 | 0.00 | 0.00 | 74 | 1014.7 |
| 20260509031525 | 58 | 186 | 0.0 | 0.0 | 0.00 | 0.00 | 0.00 | 73 | 1014.7 |
| 20260509030019 | 58 | 186 | 0.0 | 0.0 | 0.00 | 0.00 | 0.00 | 74 | 1014.6 |
| 20260509024532 | 58 | 186 | 0.0 | 0.0 | 0.00 | 0.00 | 0.00 | 72 | 1014.8 |
| 20260509023017 | 58 | 186 | 0.9 | 1.7 | 0.00 | 0.00 | 0.00 | 70 | 1014.8 |
| 20260509021516 | 59 | 205 | 0.0 | 0.9 | 0.00 | 0.00 | 0.00 | 68 | 1014.8 |
| 20260509020015 | 59 | 210 | 0.0 | 1.7 | 0.00 | 0.00 | 0.00 | 67 | 1014.7 |
| 20260509014519 | 60 | 262 | 0.0 | 1.7 | 0.00 | 0.00 | 0.00 | 66 | 1014.8 |
| 20260509013025 | 60 | 245 | 0.0 | 1.7 | 0.00 | 0.00 | 0.00 | 64 | 1014.6 |
| 20260509011510 | 61 | 252 | 0.9 | 1.7 | 0.00 | 0.00 | 0.00 | 62 | 1014.6 |
| 20260509010022 | 61 | 269 | 0.0 | 2.6 | 0.00 | 0.00 | 0.00 | 63 | 1014.3 |
| 20260509004516 | 61 | 274 | 0.9 | 2.6 | 0.00 | 0.00 | 0.00 | 62 | 1014.2 |
| 20260509003024 | 62 | 231 | 0.9 | 1.7 | 0.00 | 0.00 | 0.00 | 62 | 1014.1 |
| 20260509001523 | 63 | 236 | 0.0 | 0.9 | 0.00 | 0.00 | 0.00 | 58 | 1014.1 |
| 20260509000014 | 65 | 276 | 0.9 | 1.7 | 0.00 | 0.00 | 0.00 | 54 | 1014.1 |
| 20260508234515 | 65 | 259 | 0.9 | 1.7 | 0.00 | 0.00 | 0.00 | 53 | 1014.0 |